Location: Unspecified
(0.0000°N, 0.0000°E)
Time: 04:17:08
(UTC+00:00)

Vanguard 1 - Pass Details

Date: 20 April 2026
Orbit: 654 x 3817 km, 34.2° (Epoch: 13 May)

Event Time Altitude Azimuth Distance (km) Brightness Sun altitude
Rises 21:11:09 0° 262° (W) 6,181 14.8 -46.8°
Reaches altitude 10° 21:15:12 10° 270° (W) 5,556 14.4 -47.7°
Maximum altitude 21:31:42 38° 332° (NNW) 4,684 13.5 -51.6°
Drops below altitude 10° 21:52:35 10° 35° (NE) 6,807 14.2 -56.5°
Sets 21:58:29 0° 43° (NE) 7,630 14.5 -57.9°
